Overview Statistics Trail Chart Weather Telemetry Raw packets
 

This is the latest recevied weather packets stored in our database for station/object KD4EG. If no packets are shown the sender has not sent any weather packets the latest 10 day(s).

<< 66 67 68 69 70 71 72 >>
Time Temp. Humidity Pressure Rain* Wind** Luminosity Snow
1788180196 23.89° C 88% 1023.8 hPa 0 mm - 194 W/m² -
1788179895 23.89° C 88% 1023.8 hPa 0 mm - 174 W/m² -
1788179594 23.33° C 89% 1023.7 hPa 0 mm - 161 W/m² -
1788179289 23.33° C 89% 1023.9 hPa 0 mm - 144 W/m² -
1788178985 23.33° C 90% 1023.6 hPa 0 mm - 139 W/m² -
1788178685 22.78° C 91% 1023.7 hPa 0 mm - 117 W/m² -
1788178381 22.78° C 92% 1023.3 hPa 0 mm - 61 W/m² -
1788178076 22.78° C 92% 1023.3 hPa 0 mm - 51 W/m² -
1788177771 22.22° C 93% 1023.5 hPa 0 mm - 49 W/m² -
1788177466 22.22° C 93% 1023.7 hPa 0 mm - 45 W/m² -
1788177163 22.22° C 93% 1023.2 hPa 0 mm - 42 W/m² -
1788176861 21.67° C 94% 1023.5 hPa 0 mm - 39 W/m² -
1788176561 21.67° C 95% 1023.4 hPa 0 mm - 35 W/m² -
1788176257 21.67° C 95% 1023.3 hPa 0 mm - 32 W/m² -
1788175650 21.11° C 96% 1023.3 hPa 0 mm - 22 W/m² -
1788175346 21.11° C 96% 1023.2 hPa 0 mm - 22 W/m² -
1788175041 21.11° C 96% 1023.2 hPa 0 mm - 10 W/m² -
1788174738 21.11° C 96% 1023.1 hPa 0 mm - 10 W/m² -
1788174433 21.11° C 96% 1023.3 hPa 0 mm - 9 W/m² -
1788174128 21.11° C 96% 1023.2 hPa 0 mm - 6 W/m² -
1788173826 21.11° C 96% 1023.2 hPa 0 mm - 3 W/m² -
1788173522 21.11° C 96% 1023 hPa 0 mm - 0 W/m² -
1788173217 21.11° C 96% 1023 hPa 0 mm - 0 W/m² -
1788172914 21.11° C 96% 1022.9 hPa 0 mm - 0 W/m² -
1788172608 21.11° C 96% 1023 hPa 0 mm - 0 W/m² -

* Rain latest hour (hover to see other rain measurements)
** Current wind speed in m/s (hover to see current wind gust speed)